This demonstration page uses our WeatherBlox Daily Observations layout. Learn more.

Left ArrowRight Arrow

Hourly Observations for September 2, 2021

Temp ( °F °C ) Dew Point ( °F °C ) Humidity (%) Winds ( mph kmh ) Pressure ( in mb ) Visibility ( mi km ) Precip ( " mm )
12:15 am 00:15 Partly Cloudy 70 21.2 68 20 93 93 SE 15 24 29.77 1008 10 16 N/A
12:35 am 00:35 Partly Cloudy 70 21.1 68 19.9 93 93 SE 14 22 29.78 1008 10 16 N/A
12:55 am 00:55 Partly Cloudy 70 21.2 68 20 93 93 SE 16 26 29.78 1008 10 16 N/A
1:15 am 01:15 Partly Cloudy 70 21.2 68 20 93 93 SE 15 24 29.77 1008 10 16 N/A
1:35 am 01:35 Partly Cloudy 70 21.2 68 20 93 93 SE 14 22 29.77 1008 10 16 N/A
1:55 am 01:55 Partly Cloudy 70 21.3 68 20 92 92 SE 15 24 29.77 1008 10 16 N/A
2:15 am 02:15 Partly Cloudy 71 21.5 68 20 91 91 SE 18 30 29.77 1008 10 16 N/A
2:35 am 02:35 Partly Cloudy 71 21.6 68 20 91 91 SE 16 26 29.76 1008 10 16 N/A
2:55 am 02:55 Partly Cloudy 71 21.7 68 20 90 90 SE 17 28 29.76 1008 10 16 N/A
3:15 am 03:15 Partly Cloudy 71 21.7 68 20.1 91 91 SE 15 24 29.76 1008 10 16 N/A
3:35 am 03:35 Mostly Cloudy 71 21.6 68 20 91 91 SSE 14 22 29.76 1008 10 16 N/A
3:55 am 03:55 Cloudy 71 21.5 68 20 91 91 SSE 14 22 29.78 1008 10 16 N/A
4:15 am 04:15 Cloudy 71 21.5 68 20.1 92 92 SSE 17 28 29.77 1008 10 16 N/A
4:35 am 04:35 Cloudy 71 21.5 68 20.1 92 92 SSE 16 26 29.77 1008 10 16 N/A
4:55 am 04:55 Cloudy 71 21.5 68 20.1 92 92 SSE 14 22 29.78 1008 10 16 N/A
5:15 am 05:15 Cloudy 71 21.5 68 20.2 92 92 SSE 12 19 29.81 1009 10 16 N/A
5:35 am 05:35 Cloudy 71 21.5 68 20.1 92 92 SSE 10 17 29.80 1009 10 16 N/A
5:55 am 05:55 Cloudy with Drizzle 71 21.5 69 20.3 93 93 S 9 15 29.80 1009 10 16 N/A
6:15 am 06:15 Cloudy 70 21.2 68 20.2 94 94 S 8 13 29.81 1009 10 16 N/A
6:35 am 06:35 Cloudy with Rain 70 21 68 20.2 95 95 S 10 17 29.82 1010 7 11 0.03 0.76
6:55 am 06:55 Cloudy with Rain 70 21 69 20.3 96 96 S 12 19 29.84 1010 5 8 0.10 2.54
7:15 am 07:15 Cloudy with Nearby Thunderstorms 69 20.7 67 19.7 94 94 SSW 13 20 29.84 1011 7 11 0.05 1.27
7:35 am 07:35 Cloudy with Rain 69 20.3 67 19.5 95 95 SW 9 15 29.83 1010 5 8 0.11 2.79
7:55 am 07:55 Cloudy with Heavy Rain 68 20.1 65 18.5 91 91 SW 9 15 29.83 1010 4 6 0.22 5.59
8:15 am 08:15 Cloudy with Rain 69 20.3 66 19 92 92 SSE 6 9 29.82 1010 7 11 0.05 1.27
8:35 am 08:35 Cloudy with Light Rain 69 20.8 68 19.8 94 94 S 9 15 29.81 1010 7 11 0.09 2.29
8:55 am 08:55 Cloudy with Light Rain 70 21 68 20 94 94 SE 9 15 29.80 1009 10 16 0.11 2.79
9:15 am 09:15 Cloudy with Light Rain 70 21 69 20.3 96 96 SE 17 28 29.79 1009 10 16 N/A
9:35 am 09:35 Cloudy with Drizzle 70 20.9 68 20.2 96 96 SE 15 24 29.80 1009 5 8 0.01 0.25
9:55 am 09:55 Cloudy with Light Rain 70 21.1 69 20.5 96 96 SSE 18 30 29.81 1009 7 11 0.02 0.51
10:15 am 10:15 Cloudy 70 21.3 67 19.2 88 88 SSE 16 26 29.80 1009 10 16 N/A
10:35 am 10:35 Cloudy with Rain 69 20.7 64 18 85 85 SSE 13 20 29.80 1009 7 11 0.01 0.25
10:55 am 10:55 Cloudy 69 20.6 65 18.2 86 86 SSE 17 28 29.80 1009 10 16 0.01 0.25
11:15 am 11:15 Cloudy 70 21 66 18.7 87 87 SSE 17 28 29.80 1009 10 16 N/A
11:35 am 11:35 Cloudy 71 21.5 66 18.7 84 84 SSE 15 24 29.79 1009 10 16 N/A
11:55 am 11:55 Cloudy 71 21.5 66 18.8 85 85 SSE 15 24 29.80 1009 10 16 N/A
12:15 pm 12:15 Cloudy 71 21.7 66 18.7 83 83 SSE 13 20 29.77 1008 10 16 N/A
12:35 pm 12:35 Cloudy 73 22.9 66 19 79 79 SSE 18 30 29.75 1008 10 16 N/A
12:55 pm 12:55 Cloudy 72 22.2 67 19.2 83 83 SSE 22 35 29.76 1008 10 16 N/A
1:15 pm 13:15 Cloudy 72 22.2 68 20.1 88 88 SSE 17 28 29.77 1008 10 16 N/A
1:35 pm 13:35 Cloudy 73 22.7 69 20.4 87 87 SSE 14 22 29.76 1008 10 16 N/A
1:55 pm 13:55 Cloudy 75 24 69 20.7 82 82 SSE 18 30 29.74 1007 10 16 N/A
2:15 pm 14:15 Cloudy 76 24.6 69 20.8 79 79 SSE 15 24 29.73 1007 10 16 N/A
2:35 pm 14:35 Cloudy 76 24.4 69 20.6 79 79 SSE 16 26 29.73 1007 10 16 N/A
2:55 pm 14:55 Cloudy 78 25.3 70 21.2 78 78 SSE 18 30 29.71 1006 10 16 N/A
3:15 pm 15:15 Cloudy 78 25.8 71 21.6 78 78 SSE 21 33 29.71 1006 10 16 N/A
3:35 pm 15:35 Mostly Cloudy 80 26.4 71 21.6 75 75 SSE 17 28 29.71 1006 10 16 N/A
3:55 pm 15:55 Mostly Cloudy 80 26.8 71 21.8 74 74 SSE 16 26 29.69 1006 10 16 N/A
4:15 pm 16:15 Cloudy 80 26.5 71 21.8 75 75 SSE 17 28 29.70 1006 10 16 N/A
4:35 pm 16:35 Mostly Cloudy 81 27.3 72 22.2 74 74 SSE 17 28 29.68 1005 10 16 N/A
4:55 pm 16:55 Mostly Cloudy 79 26.1 71 21.8 77 77 SSE 12 19 29.69 1005 10 16 N/A
5:15 pm 17:15 Cloudy 80 26.7 72 22.3 77 77 SSE 9 15 29.69 1006 10 16 N/A
5:35 pm 17:35 Cloudy 80 26.9 72 22.1 75 75 SSE 16 26 29.68 1005 10 16 N/A
5:55 pm 17:55 Mostly Cloudy with Nearby Thunderstorms 80 26.4 72 22 77 77 SSE 13 20 29.69 1005 10 16 N/A
6:15 pm 18:15 Cloudy with Nearby Thunderstorms 80 26.5 72 22 76 76 SSE 12 19 29.70 1006 10 16 N/A
6:35 pm 18:35 Cloudy with Nearby Thunderstorms 78 25.5 71 21.7 80 80 E 13 20 29.73 1007 10 16 N/A
6:55 pm 18:55 Cloudy with Nearby Thunderstorms 74 23.2 69 20.3 84 84 ESE 8 13 29.74 1007 10 16 N/A
7:15 pm 19:15 Cloudy 72 22.3 68 19.9 86 86 ENE 7 11 29.76 1008 10 16 N/A
7:35 pm 19:35 Cloudy 72 22 68 20.1 89 89 E 8 13 29.76 1008 10 16 N/A
7:55 pm 19:55 Cloudy 71 21.7 68 19.9 90 90 NNE 13 20 29.80 1009 10 16 N/A
8:15 pm 20:15 Cloudy 70 21.1 66 18.8 87 87 N 12 19 29.83 1010 10 16 N/A
8:35 pm 20:35 Cloudy with Heavy Rain 66 18.8 64 17.6 93 93 NNE 14 22 29.84 1010 3 5 0.42 10.67
8:55 pm 20:55 Cloudy with Heavy Rain 68 19.8 66 19 95 95 N N/A 29.84 1010 5 8 0.55 13.97
9:15 pm 21:15 Cloudy with Heavy Rain 72 22 69 20.5 91 91 W 9 15 29.82 1010 2 2 0.58 14.73
9:35 pm 21:35 Cloudy with Light Rain 71 21.4 67 19.7 90 90 ENE 13 20 29.82 1010 5 8 0.97 24.64
9:55 pm 21:55 Partly Cloudy 70 21.2 67 19.5 90 90 ESE 3 6 29.82 1010 10 16 0.97 24.64
10:15 pm 22:15 Clear 69 20.6 66 19.1 91 91 N N/A 29.82 1010 10 16 N/A
10:35 pm 22:35 Clear 68 19.9 66 19.1 95 95 N N/A 29.83 1010 10 16 N/A
10:55 pm 22:55 Clear 67 19.3 65 18.6 96 96 N N/A 29.84 1011 10 16 N/A
11:15 pm 23:15 Clear 66 19.1 65 18.5 96 96 N N/A 29.85 1011 10 16 N/A
11:35 pm 23:35 Clear with Mist and Fog 66 18.7 65 18.2 97 97 N N/A 29.87 1011 3 5 N/A
11:55 pm 23:55 Mostly Cloudy with Mist and Fog 65 18.4 64 17.9 97 97 N N/A 29.87 1012 1 2 N/A

Powered by AerisWeather